SCF973 OMDB-ZUUU

Flight info

Callsign SCF973
Flight time N/A
Altitude 33100
Route IVURO M677 LALDO B505 NADSO B524 ALPOR M504 TELEM A791 CEA B465 CTG A599 LINSO/K0870S1010 A599 SGM W144 IGNAK IGNAK7U
Aircraft A359/H-SDE2E3GHIJ3J4J5LM1ORWXY/LB1D1

Departure

Time 2026-04-26 05:37
Airport Dubai International Airport (OMDB)

Arrival

Time N/A
Airport Chengdu Shuangliu International Airport (ZUUU)
Time Latitude Longitude Altitude Speed Heading
2026-04-26 05:19 25.24431 55.37219 27 ft 0 kts 211°
2026-04-26 05:28 25.24444 55.37228 26 ft 3 kts 211°
2026-04-26 05:29 25.24460 55.37238 26 ft 3 kts 211°
2026-04-26 05:29 25.24476 55.37249 25 ft 3 kts 211°
2026-04-26 05:29 25.24491 55.37259 26 ft 3 kts 211°
2026-04-26 05:29 25.24507 55.37271 26 ft 3 kts 240°
2026-04-26 05:30 25.24513 55.37293 24 ft 3 kts 282°
2026-04-26 05:30 25.24512 55.37300 23 ft 0 kts 291°
2026-04-26 05:32 25.24514 55.37293 24 ft 3 kts 290°
2026-04-26 05:32 25.24531 55.37245 27 ft 9 kts 297°
2026-04-26 05:33 25.24574 55.37166 27 ft 15 kts 302°
2026-04-26 05:33 25.24637 55.37054 28 ft 19 kts 302°
2026-04-26 05:33 25.24715 55.36916 28 ft 22 kts 302°
2026-04-26 05:33 25.24777 55.36753 28 ft 24 kts 281°
2026-04-26 05:34 25.24839 55.36576 28 ft 26 kts 300°
2026-04-26 05:34 25.24934 55.36408 27 ft 20 kts 301°
2026-04-26 05:34 25.24976 55.36333 27 ft 9 kts 302°
2026-04-26 05:34 25.25030 55.36291 27 ft 11 kts 358°
2026-04-26 05:35 25.25109 55.36322 28 ft 14 kts 28°
2026-04-26 05:35 25.25196 55.36383 28 ft 16 kts 32°
2026-04-26 05:35 25.25259 55.36463 28 ft 13 kts 91°
2026-04-26 05:35 25.25225 55.36540 28 ft 2 kts 121°
2026-04-26 05:36 25.25225 55.36541 28 ft 0 kts 121°
2026-04-26 05:36 25.25167 55.36647 29 ft 43 kts 121°
2026-04-26 05:36 25.24869 55.37182 31 ft 118 kts 121°
2026-04-26 05:36 25.24318 55.38166 42 ft 179 kts 124°
2026-04-26 05:37 25.23615 55.39377 630 ft 192 kts 123°
2026-04-26 05:37 25.22893 55.40652 1344 ft 200 kts 119°
2026-04-26 05:37 25.22172 55.41994 2038 ft 206 kts 118°
2026-04-26 05:37 25.21418 55.43400 2499 ft 222 kts 120°
2026-04-26 05:38 25.20569 55.44926 2877 ft 243 kts 120°
2026-04-26 05:38 25.19930 55.46694 3431 ft 253 kts 99°
2026-04-26 05:38 25.19825 55.48633 4235 ft 254 kts 86°
2026-04-26 05:38 25.19881 55.50570 5113 ft 252 kts 86°
2026-04-26 05:39 25.19902 55.52503 5985 ft 252 kts 90°
2026-04-26 05:39 25.19834 55.54437 6816 ft 252 kts 93°
2026-04-26 05:39 25.19724 55.56383 7571 ft 257 kts 92°
2026-04-26 05:39 25.19689 55.58381 8319 ft 263 kts 90°
2026-04-26 05:40 25.19811 55.60377 9103 ft 267 kts 77°
2026-04-26 05:40 25.20630 55.62214 9842 ft 275 kts 48°
2026-04-26 05:40 25.22059 55.63727 10210 ft 296 kts 38°
2026-04-26 05:40 25.23719 55.65227 10553 ft 319 kts 38°
2026-04-26 05:41 25.25495 55.66833 10878 ft 341 kts 38°
2026-04-26 05:41 25.27357 55.68547 10986 ft 353 kts 39°
2026-04-26 05:41 25.29239 55.70300 10997 ft 355 kts 39°
2026-04-26 05:41 25.31130 55.72071 11175 ft 358 kts 39°
2026-04-26 05:42 25.33026 55.73869 11889 ft 361 kts 41°
2026-04-26 05:42 25.34681 55.75954 12709 ft 363 kts 57°